| time (UTC) | temp F | wind direction | speed MPH | gust MPH | rain 1hr in | rain 24hr in | rain mn in | humidity % | barometer mb |
| 20260906214515 | 96 | 28 | 0.0 | 0.0 | 0.00 | 0.00 | 0.00 | 54 | 1008.3 |
| 20260906213014 | 96 | 28 | 0.0 | 2.0 | 0.00 | 0.00 | 0.00 | 54 | 1008.5 |
| 20260906211512 | 97 | 28 | 0.0 | 1.0 | 0.00 | 0.00 | 0.00 | 53 | 1008.7 |
| 20260906210009 | 96 | 28 | 0.0 | 6.0 | 0.00 | 0.00 | 0.00 | 53 | 1008.9 |
| 20260906204507 | 97 | 28 | 0.0 | 1.0 | 0.00 | 0.00 | 0.00 | 55 | 1009.0 |
| 20260906203012 | 96 | 28 | 1.0 | 3.0 | 0.00 | 0.00 | 0.00 | 55 | 1009.2 |
| 20260906201503 | 96 | 28 | 1.0 | 3.0 | 0.00 | 0.00 | 0.00 | 55 | 1009.5 |
| 20260906200059 | 96 | 28 | 0.0 | 3.0 | 0.00 | 0.00 | 0.00 | 55 | 1009.7 |
| 20260906194606 | 96 | 28 | 0.0 | 3.0 | 0.00 | 0.00 | 0.00 | 56 | 1009.9 |
| 20260906193058 | 97 | 28 | 0.0 | 2.0 | 0.00 | 0.00 | 0.00 | 54 | 1009.8 |
| 20260906191559 | 96 | 28 | 0.0 | 5.0 | 0.00 | 0.00 | 0.00 | 55 | 1010.0 |
| 20260906190025 | 96 | 28 | 0.0 | 3.0 | 0.00 | 0.03 | 0.00 | 55 | 1010.3 |
| 20260906184523 | 95 | 28 | 0.0 | 0.0 | 0.00 | 0.03 | 0.00 | 59 | 1010.3 |
| 20260906183029 | 96 | 28 | 0.0 | 3.0 | 0.00 | 0.03 | 0.00 | 57 | 1010.5 |
| 20260906181533 | 95 | 28 | 0.0 | 1.0 | 0.00 | 0.03 | 0.00 | 62 | 1010.9 |
| 20260906180025 | 95 | 28 | 0.0 | 4.0 | 0.00 | 0.03 | 0.00 | 62 | 1011.1 |
| 20260906174514 | 95 | 28 | 0.0 | 3.0 | 0.00 | 0.03 | 0.00 | 59 | 1011.3 |
| 20260906173006 | 94 | 28 | 0.0 | 1.0 | 0.00 | 0.03 | 0.00 | 64 | 1011.4 |
| 20260906171505 | 92 | 28 | 0.0 | 3.0 | 0.00 | 0.03 | 0.00 | 65 | 1011.5 |
| 20260906170109 | 91 | 28 | 0.0 | 3.0 | 0.00 | 0.03 | 0.00 | 67 | 1011.8 |
| 20260906164558 | 90 | 28 | 0.0 | 0.0 | 0.00 | 0.03 | 0.00 | 68 | 1012.0 |
| 20260906163052 | 88 | 28 | 0.0 | 0.0 | 0.00 | 0.03 | 0.00 | 73 | 1012.0 |
| 20260906161612 | 86 | 28 | 0.0 | 0.0 | 0.00 | 0.03 | 0.00 | 79 | 1012.1 |
| 20260906160043 | 85 | 28 | 0.0 | 0.0 | 0.00 | 0.03 | 0.00 | 82 | 1012.1 |
| 20260906154545 | 83 | 28 | 0.0 | 0.0 | 0.00 | 0.03 | 0.00 | 86 | 1012.1 |
| 20260906153006 | 82 | 28 | 0.0 | 0.0 | 0.00 | 0.03 | 0.00 | 88 | 1012.2 |
| 20260906151502 | 79 | 28 | 0.0 | 1.0 | 0.00 | 0.03 | 0.00 | 93 | 1012.3 |
| 20260906150106 | 78 | 28 | 0.0 | 1.0 | 0.00 | 0.03 | 0.00 | 96 | 1012.3 |
| 20260906144553 | 77 | 28 | 0.0 | 1.0 | 0.00 | 0.03 | 0.00 | 97 | 1012.5 |
| 20260906143051 | 76 | 28 | 0.0 | 1.0 | 0.00 | 0.03 | 0.00 | 97 | 1012.4 |
| 20260906141603 | 76 | 28 | 0.0 | 1.0 | 0.00 | 0.03 | 0.00 | 97 | 1012.3 |
| 20260906140016 | 75 | 28 | 0.0 | 0.0 | 0.00 | 0.03 | 0.00 | 98 | 1012.1 |
| 20260906134516 | 75 | 28 | 0.0 | 0.0 | 0.00 | 0.03 | 0.00 | 97 | 1012.1 |
| 20260906133013 | 75 | 28 | 0.0 | 0.0 | 0.00 | 0.03 | 0.00 | 97 | 1012.1 |
| 20260906131512 | 75 | 28 | 0.0 | 0.0 | 0.00 | 0.03 | 0.00 | 97 | 1011.8 |
| 20260906130016 | 74 | 28 | 0.0 | 0.0 | 0.00 | 0.03 | 0.00 | 97 | 1011.7 |
| 20260906124510 | 73 | 28 | 0.0 | 0.0 | 0.00 | 0.03 | 0.00 | 97 | 1011.4 |
| 20260906123110 | 74 | 28 | 0.0 | 0.0 | 0.00 | 0.03 | 0.00 | 97 | 1011.4 |
| 20260906121540 | 74 | 28 | 0.0 | 0.0 | 0.00 | 0.03 | 0.00 | 97 | 1011.1 |
| 20260906120034 | 74 | 28 | 0.0 | 0.0 | 0.00 | 0.03 | 0.00 | 97 | 1011.1 |
| 20260906114532 | 74 | 28 | 0.0 | 0.0 | 0.00 | 0.03 | 0.00 | 97 | 1010.9 |
| 20260906113028 | 74 | 28 | 0.0 | 0.0 | 0.00 | 0.03 | 0.00 | 97 | 1010.8 |
| 20260906111530 | 74 | 28 | 0.0 | 0.0 | 0.00 | 0.03 | 0.00 | 97 | 1010.8 |
| 20260906110025 | 74 | 28 | 0.0 | 0.0 | 0.00 | 0.03 | 0.00 | 97 | 1010.7 |
| 20260906104528 | 74 | 28 | 0.0 | 0.0 | 0.00 | 0.03 | 0.00 | 97 | 1010.5 |
| 20260906103024 | 74 | 28 | 0.0 | 0.0 | 0.00 | 0.03 | 0.00 | 97 | 1010.4 |
| 20260906101554 | 74 | 28 | 0.0 | 0.0 | 0.00 | 0.03 | 0.00 | 97 | 1010.3 |
| 20260906100054 | 74 | 28 | 0.0 | 0.0 | 0.00 | 0.03 | 0.00 | 97 | 1010.2 |
| 20260906094559 | 74 | 28 | 0.0 | 0.0 | 0.00 | 0.03 | 0.00 | 97 | 1010.4 |
| 20260906093052 | 74 | 28 | 0.0 | 0.0 | 0.00 | 0.03 | 0.00 | 97 | 1010.2 |
| 20260906091550 | 74 | 28 | 0.0 | 0.0 | 0.00 | 0.03 | 0.00 | 97 | 1010.3 |
| 20260906090053 | 74 | 28 | 0.0 | 0.0 | 0.00 | 0.03 | 0.00 | 96 | 1010.5 |
| 20260906084545 | 74 | 28 | 0.0 | 0.0 | 0.00 | 0.03 | 0.00 | 96 | 1010.3 |
| 20260906083047 | 74 | 28 | 0.0 | 0.0 | 0.00 | 0.03 | 0.00 | 96 | 1010.3 |
| 20260906081546 | 74 | 28 | 0.0 | 0.0 | 0.00 | 0.03 | 0.00 | 96 | 1010.3 |
| 20260906080046 | 74 | 28 | 0.0 | 0.0 | 0.00 | 0.03 | 0.00 | 96 | 1010.1 |
| 20260906074539 | 75 | 28 | 0.0 | 0.0 | 0.00 | 0.03 | 0.00 | 96 | 1010.0 |
| 20260906073038 | 75 | 28 | 0.0 | 0.0 | 0.00 | 0.03 | 0.00 | 96 | 1010.0 |
| 20260906071537 | 75 | 28 | 0.0 | 0.0 | 0.00 | 0.03 | 0.00 | 96 | 1010.0 |
| 20260906070036 | 75 | 28 | 0.0 | 0.0 | 0.00 | 0.03 | 0.00 | 96 | 1010.0 |
| 20260906064533 | 75 | 28 | 0.0 | 0.0 | 0.00 | 0.03 | 0.00 | 96 | 1009.8 |
| 20260906063032 | 75 | 28 | 0.0 | 0.0 | 0.00 | 0.03 | 0.00 | 96 | 1009.8 |
| 20260906061530 | 75 | 28 | 0.0 | 0.0 | 0.00 | 0.03 | 0.00 | 96 | 1009.9 |
| 20260906060030 | 75 | 28 | 0.0 | 0.0 | 0.00 | 0.03 | 0.00 | 96 | 1010.0 |
| 20260906054526 | 75 | 28 | 0.0 | 0.0 | 0.00 | 0.03 | 0.00 | 95 | 1009.9 |
| 20260906053025 | 76 | 28 | 0.0 | 0.0 | 0.00 | 0.03 | 0.00 | 95 | 1009.8 |
| 20260906051523 | 76 | 28 | 0.0 | 0.0 | 0.00 | 0.03 | 0.00 | 95 | 1009.9 |
| 20260906050023 | 76 | 28 | 0.0 | 0.0 | 0.00 | 0.03 | 0.00 | 95 | 1010.1 |
| 20260906044519 | 76 | 28 | 0.0 | 0.0 | 0.00 | 0.03 | 0.00 | 95 | 1010.0 |
| 20260906043027 | 76 | 28 | 0.0 | 0.0 | 0.00 | 0.03 | 0.00 | 95 | 1010.0 |
| 20260906041516 | 76 | 28 | 0.0 | 0.0 | 0.00 | 0.03 | 0.00 | 95 | 1009.9 |
| 20260906040015 | 76 | 28 | 0.0 | 0.0 | 0.00 | 0.03 | 0.03 | 95 | 1009.6 |
| 20260906034520 | 77 | 28 | 0.0 | 0.0 | 0.00 | 0.03 | 0.03 | 95 | 1009.8 |
| 20260906033011 | 77 | 28 | 0.0 | 0.0 | 0.00 | 0.03 | 0.03 | 94 | 1009.7 |
| 20260906031515 | 77 | 28 | 0.0 | 0.0 | 0.00 | 0.03 | 0.03 | 94 | 1009.7 |
| 20260906030010 | 77 | 28 | 0.0 | 0.0 | 0.00 | 0.03 | 0.03 | 94 | 1010.0 |
| 20260906024508 | 77 | 28 | 0.0 | 0.0 | 0.00 | 0.03 | 0.03 | 94 | 1010.3 |
| 20260906023007 | 78 | 28 | 0.0 | 0.0 | 0.00 | 0.03 | 0.03 | 93 | 1010.0 |
| 20260906021508 | 78 | 28 | 0.0 | 0.0 | 0.00 | 0.03 | 0.03 | 93 | 1010.2 |
| 20260906020008 | 78 | 28 | 0.0 | 0.0 | 0.00 | 0.03 | 0.03 | 93 | 1010.1 |
| 20260906014506 | 78 | 28 | 0.0 | 0.0 | 0.00 | 0.03 | 0.03 | 93 | 1009.8 |
| 20260906013005 | 79 | 28 | 0.0 | 0.0 | 0.00 | 0.03 | 0.03 | 92 | 1009.7 |
| 20260906011504 | 79 | 28 | 0.0 | 2.0 | 0.00 | 0.03 | 0.03 | 92 | 1010.0 |
| 20260906010004 | 80 | 28 | 0.0 | 3.0 | 0.00 | 0.03 | 0.03 | 91 | 1009.3 |
| 20260906004534 | 80 | 28 | 0.0 | 1.0 | 0.00 | 0.03 | 0.03 | 90 | 1009.2 |
| 20260906003033 | 80 | 28 | 0.0 | 1.0 | 0.00 | 0.03 | 0.03 | 89 | 1009.3 |
| 20260906001546 | 81 | 28 | 0.0 | 0.0 | 0.00 | 0.03 | 0.03 | 90 | 1009.5 |
| 20260906000029 | 81 | 28 | 0.0 | 0.0 | 0.00 | 0.03 | 0.03 | 90 | 1009.3 |
| 20260905234529 | 82 | 28 | 0.0 | 0.0 | 0.00 | 0.03 | 0.03 | 91 | 1009.4 |
| 20260905233027 | 81 | 28 | 0.0 | 0.0 | 0.00 | 0.03 | 0.03 | 91 | 1009.2 |
| 20260905231528 | 81 | 28 | 0.0 | 0.0 | 0.00 | 0.03 | 0.03 | 91 | 1009.2 |
| 20260905230026 | 81 | 28 | 0.0 | 0.0 | 0.00 | 0.03 | 0.03 | 92 | 1009.1 |
| 20260905224525 | 81 | 28 | 0.0 | 0.0 | 0.00 | 0.03 | 0.03 | 91 | 1008.9 |
| 20260905223040 | 81 | 28 | 0.0 | 1.0 | 0.00 | 0.03 | 0.03 | 92 | 1009.0 |
| 20260905221523 | 81 | 28 | 0.0 | 0.0 | 0.00 | 0.03 | 0.03 | 93 | 1009.2 |
| 20260905220021 | 80 | 28 | 0.0 | 2.0 | 0.00 | 0.03 | 0.03 | 93 | 1009.1 |